Location: Boissi�res
(45.2500°N, 2.3667°E)
Time: 12:42:36
(UTC+00:00)

USA 307 - Pass Details

Date: 03 March 2021
Orbit: 567 x 577 km, 54.0° (Epoch: 16 April)

Event Time Altitude Azimuth Distance (km) Brightness Sun altitude
Rises 18:15:02 0° 275° (W) 2,784 8.8 -6.9°
Reaches altitude 10° 18:17:32 10° 287° (WNW) 1,885 7.0 -7.3°
Maximum altitude 18:21:17 29° 347° (NNW) 1,077 4.4 -8.0°
Drops below altitude 10° 18:25:02 10° 49° (NE) 1,881 5.1 -8.6°
Enters shadow 18:25:53 - 54° (NE) 2,180 5.4 -8.8°
